Zurück zum Katalog

UFO 3

USA 104

AktivMilitärGEO
NORAD 23132·PAYLOAD·🇺🇸 United States

Gestartet Jun 24, 1994 von Cape Canaveral Space Force Station

Loading…

TLE

AktuellSource: Space-Track

Epoche: Sep 14, 2026, 01:46 UTC

1 23132U 94035A   26257.07409674 -.00000113  00000-0  00000-0 0  9997
2 23132  12.4082   5.1524 0004199 237.6604 126.4984  1.00271250132590

Verfolge UFO 3 in Echtzeit mit AllMySat

Download on the App Store